Date,TemperatureHighF,TemperatureAvgF,TemperatureLowF,DewpointHighF,DewpointAvgF,DewpointLowF,HumidityHigh,HumidityAvg,HumidityLow,PressureMaxIn,PressureMinIn,WindSpeedMaxMPH,WindSpeedAvgMPH,GustSpeedMaxMPH,PrecipitationSumIn
2013-8-1,90,90,90,72,72,71,55,54,54,30.01,30.01,1,0,4,0.00
2013-8-2,94,85,73,80,77,71,98,77,62,30.04,29.96,4,1,14,0.12
2013-8-3,93,84,75,80,76,74,98,78,60,30.09,30.00,8,1,11,0.00
2013-8-4,92,85,77,80,78,76,98,79,64,30.09,30.00,10,1,14,0.01
2013-8-5,94,86,79,80,78,76,92,76,62,30.03,29.94,10,1,13,0.00
2013-8-6,93,82,74,81,78,72,97,86,66,29.99,29.89,4,0,16,1.12
2013-8-7,94,81,72,79,76,70,100,85,56,29.97,29.89,13,1,21,1.20
2013-8-8,94,82,74,79,76,72,99,85,59,30.02,29.92,9,2,11,0.43
2013-8-9,93,80,73,78,75,72,97,85,53,30.06,29.96,8,1,9,0.20
2013-8-10,93,83,75,78,76,73,96,79,57,30.12,30.03,5,1,13,0.00
2013-8-11,94,86,78,79,76,74,92,75,53,30.15,30.04,9,2,10,0.00
2013-8-12,93,84,76,80,78,74,97,81,59,30.13,30.00,7,1,11,0.40
2013-8-13,95,84,75,79,77,71,99,80,48,30.05,29.93,6,1,10,0.01
2013-8-14,94,85,76,80,77,74,94,78,61,30.00,29.93,7,1,9,0.02
2013-8-15,91,83,76,79,76,74,93,80,65,30.04,29.95,6,1,14,0.00
2013-8-16,95,85,79,79,76,73,89,76,55,30.04,29.96,5,0,12,0.03
2013-8-17,94,82,73,81,75,72,98,80,58,30.08,29.98,9,1,12,0.63
2013-8-18,93,82,75,79,76,74,98,85,60,30.10,30.01,9,2,12,0.23
2013-8-19,94,81,74,79,76,73,98,86,55,30.07,29.95,7,2,11,1.26
2013-8-20,92,81,73,79,75,73,99,85,58,30.08,29.99,6,1,8,0.01
2013-8-21,93,82,75,79,76,72,97,84,55,30.10,29.98,19,2,22,0.25
2013-8-22,92,81,73,79,76,71,97,87,60,30.08,29.97,10,2,12,0.75
2013-8-23,93,81,77,79,76,72,98,85,55,30.02,29.95,7,1,12,0.09
2013-8-24,94,82,76,78,75,73,95,81,53,30.11,29.99,11,2,16,0.00
2013-8-25,88,80,75,77,75,73,94,85,66,30.16,30.07,9,1,16,0.00
2013-8-26,92,80,75,77,75,72,96,85,53,30.14,30.00,7,1,17,0.14
2013-8-27,91,80,74,77,74,71,97,83,53,30.05,29.97,10,2,14,0.04
2013-8-28,90,80,71,76,73,70,99,82,53,30.06,29.97,6,1,10,0.00
2013-8-29,92,82,72,76,73,70,96,76,54,30.04,29.94,6,1,10,0.00
2013-8-30,91,82,76,78,76,72,95,83,61,30.00,29.90,5,0,11,0.02
2013-8-31,91,81,73,78,74,72,97,81,60,29.99,29.89,4,0,14,0.95